Cortez, CO

7:20 PM MDT on September 25, 2017 (GMT -0600)
Cortez Municipal

Weather History for KCEZ - August, 2014

Change the Weather History Date:

Saturday, August 30, 2014

  Actual Average Record
Temperature  
Mean Temperature 67 °F 66 °F  
Max Temperature 88 °F 83 °F 93 °F (1998)
Min Temperature 45 °F 49 °F 39 °F (2004)
Degree Days  
Heating Degree Days 0 1  
Month to date heating degree days 10 6  
Since 1 June heating degree days 41 84  
Since 1 July heating degree days 10 9  
Cooling Degree Days 2 2  
Month to date cooling degree days 126 144  
Year to date cooling degree days 507 408  
Since 1 June cooling degree days 491 403  
Growing Degree Days 16 (Base 50)    
Moisture  
Dew Point 42 °F    
Average Humidity 54    
Maximum Humidity 92    
Minimum Humidity 16    
Precipitation  
Precipitation 0.00 in 0.05 in 0.63 in (2013)
Month to date precipitation 1.42 1.48  
Year to date precipitation 5.10 8.39  
Sea Level Pressure  
Sea Level Pressure 29.93 in    
Wind  
Wind Speed 5 mph (ESE)    
Max Wind Speed 17 mph    
Max Gust Speed 26 mph    
Visibility 10 miles    
Events      
T = Trace of Precipitation, MM = Missing Value Source: NWS Daily Summary

Daily Weather History Graph

Daily Weather History Graph

Search for Another Location

Airport or City:

Trip Planner

Search our weather history database for the weather conditions in past years. The results will help you decide how hot, cold, wet, or windy it might be!

Date:

Astronomy

Aug. 30, 2014 Rise Set
Actual Time 6:43 AM MDT 7:46 PM MDT
Civil Twilight 6:16 AM MDT 8:12 PM MDT
Nautical Twilight 5:44 AM MDT 8:44 PM MDT
Astronomical Twilight 5:11 AM MDT 9:17 PM MDT
Moon 11:27 AM MDT (8/30) 10:29 PM MDT (8/30)
Length of Visible Light 13h 56m
Length of Day
13h 02m
Waxing Crescent, 23% of the Moon is Illuminated
Aug 30
Waxing Crescent
Sep 2
First Quarter
Sep 8
Full
Sep 15
Last Quarter
Sep 24
New

Hourly Weather History & Observations

Time (MDT) Temp. Windchill Dew Point Humidity Pressure Visibility Wind Dir Wind Speed Gust Speed Precip Events Conditions
12:53 AM 54.0 °F - 45.0 °F 72% 29.98 in 10.0 mi ENE 5.8 mph - N/A   Clear
2:53 AM 50.0 °F - 45.0 °F 83% 29.96 in 10.0 mi ENE 4.6 mph - N/A   Clear
3:53 AM 48.9 °F - 43.0 °F 80% 29.97 in 10.0 mi East 3.5 mph - N/A   Clear
4:53 AM 46.9 °F - 43.0 °F 86% 29.98 in 10.0 mi East 3.5 mph - N/A   Clear
5:53 AM 45.0 °F 43.5 °F 42.1 °F 90% 29.99 in 10.0 mi NE 3.5 mph - N/A   Clear
6:53 AM 46.0 °F 42.5 °F 42.1 °F 86% 30.01 in 10.0 mi East 6.9 mph - N/A   Clear
7:53 AM 54.0 °F - 44.1 °F 69% 30.02 in 10.0 mi Calm Calm - N/A   Clear
8:53 AM 61.0 °F - 45.0 °F 56% 30.02 in 10.0 mi Calm Calm - N/A   Clear
9:53 AM 66.9 °F - 48.9 °F 52% 30.01 in 10.0 mi SE 3.5 mph - N/A   Clear
10:53 AM 75.0 °F - 43.0 °F 32% 29.99 in 10.0 mi Calm Calm - N/A   Clear
11:53 AM 82.0 °F - 37.9 °F 21% 29.97 in 10.0 mi SSW 13.8 mph - N/A   Clear
12:53 PM 84.0 °F - 37.9 °F 19% 29.94 in 10.0 mi South 12.7 mph - N/A   Clear
1:53 PM 86.0 °F - 37.0 °F 18% 29.92 in 10.0 mi South 16.1 mph - N/A   Clear
2:53 PM 88.0 °F - 36.0 °F 16% 29.90 in 10.0 mi South 12.7 mph - N/A   Clear
3:53 PM 84.0 °F - 36.0 °F 18% 29.88 in 10.0 mi WSW 9.2 mph - N/A   Mostly Cloudy
4:53 PM 84.0 °F - 33.1 °F 16% 29.87 in 10.0 mi Variable 5.8 mph - N/A   Clear
5:53 PM 82.9 °F - 36.0 °F 19% 29.87 in 10.0 mi South 4.6 mph - N/A   Clear
6:53 PM 79.0 °F - 41.0 °F 26% 29.85 in 10.0 mi South 6.9 mph - N/A   Clear
7:53 PM 71.1 °F - 45.0 °F 39% 29.84 in 10.0 mi Calm Calm - N/A   Clear
9:53 PM 62.1 °F - 44.1 °F 52% 29.87 in 10.0 mi NE 3.5 mph - N/A   Clear
10:53 PM 59.0 °F - 44.1 °F 58% 29.86 in 10.0 mi Calm Calm - N/A   Clear
11:53 PM 55.9 °F - 44.1 °F 64% 29.83 in 10.0 mi ENE 6.9 mph - N/A   Clear